Location: Casilda
(33.0440°S, 61.1680°W)
Time: 09:59:59
(UTC-03:00)

ISS - Pass Details

Date: 13 April 2021
Orbit: 418 x 422 km, 51.6° (Epoch: 11 April)

Event Time Altitude Azimuth Distance (km) Brightness Sun altitude
Exits shadow 05:48:51 74° 39° (NE) 446 -3.7 -21.0°
Drops below altitude 10° 05:51:58 10° 44° (NE) 1,507 -0.4 -20.3°
Sets 05:54:03 0° 44° (NE) 2,366 0.7 -19.9°
